timestamp,surface_pressure_avg,surface_temp_avg,battery_voltage,lat,long
2021-03-12 00:09:01+00:00,321.1147,1.4,12.65,47.84626,-54.09684
2021-03-12 00:19:01+00:00,316.4014,1.4,12.65,47.84626,-54.09684
2021-03-12 00:29:01+00:00,312.3947,1.4,12.65,47.84626,-54.09684
2021-03-12 00:39:01+00:00,310.1913,1.4,12.65,47.84626,-54.09684
2021-03-12 00:49:01+00:00,308.8264,1.4,12.65,47.84626,-54.09684
2021-03-12 00:59:01+00:00,301.6397,1.4,12.65,47.84626,-54.09684
2021-03-12 01:09:01+00:00,296.9597,1.4,12.65,47.84626,-54.09684
2021-03-12 01:19:01+00:00,292.3447,1.4,12.57,47.84626,-54.09684
2021-03-12 01:29:01+00:00,287.0281,1.4,12.57,47.84626,-54.09684
2021-03-12 01:39:01+00:00,277.303,1.4,12.57,47.84626,-54.09684
2021-03-12 01:49:01+00:00,268.8181,1.4,12.57,47.84626,-54.09684
2021-03-12 01:59:01+00:00,263.2565,1.4,12.57,47.84626,-54.09684
2021-03-12 02:09:01+00:00,256.4081,1.4,12.57,47.84626,-54.09684
2021-03-12 02:19:01+00:00,250.9914,1.4,12.57,47.84626,-54.09684
2021-03-12 02:29:01+00:00,244.5764,1.4,12.57,47.84626,-54.09684
2021-03-12 02:39:01+00:00,234.3564,1.4,12.57,47.84626,-54.09684
2021-03-12 02:49:01+00:00,226.1598,1.4,12.57,47.84626,-54.09684
2021-03-12 02:59:01+00:00,222.0431,1.4,12.57,47.84626,-54.09684
2021-03-12 03:09:01+00:00,217.2714,1.4,12.57,47.84626,-54.09684
2021-03-12 03:19:01+00:00,211.0314,1.4,12.57,47.84626,-54.09684
2021-03-12 03:29:01+00:00,206.0248,1.38,12.57,47.84626,-54.09684
2021-03-12 03:39:01+00:00,199.5515,1.31,12.57,47.84626,-54.09684
2021-03-12 03:49:01+00:00,197.7198,1.3,12.57,47.84626,-54.09684
2021-03-12 03:59:01+00:00,196.5898,1.3,12.57,47.84626,-54.09684
2021-03-12 04:09:01+00:00,192.0615,1.3,12.57,47.84626,-54.09684
2021-03-12 04:19:01+00:00,188.0565,1.3,12.57,47.84626,-54.09684
2021-03-12 04:29:01+00:00,187.8148,1.3,12.57,47.84626,-54.09684
2021-03-12 04:39:01+00:00,186.3581,1.3,12.57,47.84626,-54.09684
2021-03-12 04:49:01+00:00,182.9182,1.3,12.57,47.84626,-54.09684
2021-03-12 04:59:01+00:00,182.7048,1.3,12.57,47.84626,-54.09684
2021-03-12 05:09:01+00:00,185.6865,1.3,12.57,47.84626,-54.09684
2021-03-12 05:19:01+00:00,188.8364,1.3,12.57,47.84626,-54.09684
2021-03-12 05:29:01+00:00,192.2681,1.3,12.57,47.84626,-54.09684
2021-03-12 05:39:01+00:00,192.8665,1.3,12.57,47.84626,-54.09684
2021-03-12 05:49:01+00:00,194.4748,1.3,12.57,47.84626,-54.09684
2021-03-12 05:59:01+00:00,198.2631,1.3,12.57,47.84626,-54.09684
2021-03-12 06:09:01+00:00,204.8915,1.3,12.57,47.84626,-54.09684
2021-03-12 06:19:01+00:00,211.2897,1.3,12.57,47.84626,-54.09684
2021-03-12 06:29:01+00:00,212.8598,1.3,12.57,47.84626,-54.09684
2021-03-12 06:39:01+00:00,215.9764,1.3,12.57,47.84626,-54.09684
2021-03-12 06:49:01+00:00,220.9598,1.3,12.57,47.84626,-54.09684
2021-03-12 06:59:01+00:00,224.9831,1.29,12.57,47.84626,-54.09684
2021-03-12 07:09:01+00:00,227.5231,1.29,12.57,47.84626,-54.09684
2021-03-12 07:19:01+00:00,234.9931,1.29,12.57,47.84626,-54.09684
2021-03-12 07:29:01+00:00,240.6497,1.3,12.57,47.84626,-54.09684
2021-03-12 07:39:01+00:00,242.8331,1.3,12.57,47.84626,-54.09684
2021-03-12 07:49:01+00:00,247.5648,1.3,12.57,47.84626,-54.09684
2021-03-12 07:59:01+00:00,258.2864,1.3,12.57,47.84626,-54.09684
2021-03-12 08:09:01+00:00,268.6197,1.3,12.57,47.84626,-54.09684
2021-03-12 08:19:01+00:00,271.3798,1.3,12.57,47.84626,-54.09684
2021-03-12 08:29:01+00:00,277.0497,1.3,12.57,47.84626,-54.09684
2021-03-12 08:39:01+00:00,289.1547,1.3,12.57,47.84626,-54.09684
2021-03-12 08:49:01+00:00,294.9913,1.3,12.57,47.84626,-54.09684
2021-03-12 08:59:01+00:00,296.8397,1.3,12.57,47.84626,-54.09684
2021-03-12 09:09:01+00:00,309.2697,1.3,12.57,47.84626,-54.09684
2021-03-12 09:19:01+00:00,326.068,1.3,12.57,47.84626,-54.09684
2021-03-12 09:29:01+00:00,332.0262,1.3,12.57,47.84626,-54.09684
2021-03-12 09:39:01+00:00,336.4246,1.3,12.57,47.84626,-54.09684
2021-03-12 09:49:01+00:00,348.4496,1.29,12.57,47.84626,-54.09684
2021-03-12 09:59:01+00:00,356.7847,1.29,12.57,47.84626,-54.09684
2021-03-12 10:09:01+00:00,357.1463,1.29,12.57,47.84626,-54.09684
2021-03-12 10:19:01+00:00,359.5596,1.29,12.57,47.84626,-54.09684
2021-03-12 10:29:01+00:00,368.3329,1.29,12.57,47.84626,-54.09684
2021-03-12 10:39:01+00:00,367.3979,1.29,12.57,47.84626,-54.09684
2021-03-12 10:49:01+00:00,356.8446,1.28,12.57,47.84626,-54.09684
2021-03-12 10:59:01+00:00,361.343,1.29,12.57,47.84626,-54.09684
2021-03-12 11:09:01+00:00,372.3363,1.29,12.57,47.84626,-54.09684
2021-03-12 11:19:01+00:00,370.3746,1.29,12.57,47.84626,-54.09684
2021-03-12 11:29:01+00:00,362.8297,1.29,12.57,47.84626,-54.09684
2021-03-12 11:39:01+00:00,366.4663,1.3,12.57,47.84626,-54.09684
2021-03-12 11:49:01+00:00,368.9497,1.3,12.57,47.84626,-54.09684
2021-03-12 11:59:01+00:00,358.9396,1.3,12.57,47.84626,-54.09684
2021-03-12 12:09:01+00:00,357.0597,1.3,12.57,47.84626,-54.09684
2021-03-12 12:19:01+00:00,364.4695,1.3,12.65,47.84626,-54.09684
2021-03-12 12:29:01+00:00,361.0629,1.3,12.65,47.84626,-54.09684
2021-03-12 12:39:01+00:00,351.9646,1.3,12.65,47.84626,-54.09684
2021-03-12 12:49:01+00:00,352.2363,1.3,12.65,47.84626,-54.09684
2021-03-12 12:59:01+00:00,353.5696,1.3,12.65,47.84626,-54.09684
2021-03-12 13:09:01+00:00,345.5696,1.3,12.65,47.84626,-54.09684
2021-03-12 13:19:01+00:00,338.668,1.3,12.97,47.84626,-54.09684
2021-03-12 13:29:01+00:00,336.1996,1.3,12.97,47.84626,-54.09684
2021-03-12 13:39:01+00:00,325.4547,1.3,12.97,47.84626,-54.09684
2021-03-12 13:49:01+00:00,313.768,1.3,12.97,47.84626,-54.09684
2021-03-12 13:59:01+00:00,305.3747,1.3,12.97,47.84626,-54.09684
2021-03-12 14:09:01+00:00,299.718,1.3,12.97,47.84626,-54.09684
2021-03-12 14:19:01+00:00,289.6431,1.3,13.21,47.84626,-54.09684
2021-03-12 14:29:01+00:00,283.623,1.3,13.21,47.84626,-54.09684
2021-03-12 14:39:01+00:00,272.4764,1.3,13.21,47.84626,-54.09684
2021-03-12 14:49:01+00:00,259.1614,1.3,13.21,47.84626,-54.09684
2021-03-12 14:59:01+00:00,246.993,1.3,13.21,47.84626,-54.09684
2021-03-12 15:09:01+00:00,239.1947,1.3,13.21,47.84626,-54.09684
2021-03-12 15:19:01+00:00,235.1564,1.3,13.37,47.84626,-54.09684
2021-03-12 15:29:01+00:00,228.2697,1.3,13.37,47.84626,-54.09684
2021-03-12 15:39:01+00:00,223.2431,1.3,13.37,47.84626,-54.09684
2021-03-12 15:49:01+00:00,214.1264,1.3,13.37,47.84626,-54.09684
2021-03-12 15:59:01+00:00,206.4148,1.32,13.37,47.84626,-54.09684
2021-03-12 16:09:01+00:00,206.4531,1.36,13.37,47.84626,-54.09684
2021-03-12 16:19:01+00:00,206.5431,1.39,13.53,47.84626,-54.09684
2021-03-12 16:29:01+00:00,201.1465,1.38,13.53,47.84626,-54.09684
2021-03-12 16:39:01+00:00,196.3264,1.38,13.53,47.84626,-54.09684
2021-03-12 16:49:01+00:00,195.6198,1.4,13.53,47.84626,-54.09684
2021-03-12 16:59:01+00:00,190.0848,1.4,13.53,47.84626,-54.09684
2021-03-12 17:09:01+00:00,179.8898,1.4,13.53,47.84626,-54.09684
2021-03-12 17:19:01+00:00,177.3665,1.4,13.37,47.84626,-54.09684
2021-03-12 17:29:01+00:00,185.7215,1.4,13.37,47.84626,-54.09684
2021-03-12 17:39:01+00:00,193.1948,1.44,13.37,47.84626,-54.09684
2021-03-12 17:49:01+00:00,195.6148,1.45,13.37,47.84626,-54.09684
2021-03-12 17:59:01+00:00,193.2114,1.4,13.37,47.84626,-54.09684
2021-03-12 18:09:01+00:00,191.5931,1.44,13.37,47.84626,-54.09684
2021-03-12 18:19:01+00:00,192.6714,1.48,13.29,47.84626,-54.09684
2021-03-12 18:29:01+00:00,197.9048,1.5,13.29,47.84626,-54.09684
2021-03-12 18:39:01+00:00,204.1747,1.5,13.29,47.84626,-54.09684
2021-03-12 18:49:01+00:00,207.5764,1.5,13.29,47.84626,-54.09684
2021-03-12 18:59:01+00:00,211.7564,1.45,13.29,47.84626,-54.09684
2021-03-12 19:09:01+00:00,210.4931,1.4,13.29,47.84626,-54.09684
2021-03-12 19:19:01+00:00,209.3131,1.4,13.21,47.84626,-54.09684
2021-03-12 19:29:01+00:00,216.0781,1.46,13.21,47.84626,-54.09684
2021-03-12 19:39:01+00:00,221.6397,1.49,13.21,47.84626,-54.09684
2021-03-12 19:49:01+00:00,224.0464,1.4,13.21,47.84626,-54.09684
2021-03-12 19:59:01+00:00,226.2365,1.4,13.21,47.84626,-54.09684
2021-03-12 20:09:01+00:00,235.6381,1.4,13.21,47.84626,-54.09684
2021-03-12 20:19:01+00:00,241.3014,1.4,12.97,47.84626,-54.09684
2021-03-12 20:29:01+00:00,241.7097,1.4,12.97,47.84626,-54.09684
2021-03-12 20:39:01+00:00,242.2747,1.4,12.97,47.84626,-54.09684
2021-03-12 20:49:01+00:00,252.1547,1.4,12.97,47.84626,-54.09684
2021-03-12 20:59:01+00:00,260.1764,1.4,12.97,47.84626,-54.09684
2021-03-12 21:09:01+00:00,264.9198,1.39,12.97,47.84626,-54.09684
2021-03-12 21:19:01+00:00,272.1364,1.38,12.73,47.84626,-54.09684
2021-03-12 21:29:01+00:00,283.7364,1.37,12.73,47.84626,-54.09684
2021-03-12 21:39:01+00:00,290.3997,1.36,12.73,47.84626,-54.09684
2021-03-12 21:49:01+00:00,298.1197,1.34,12.73,47.84626,-54.09684
2021-03-12 21:59:01+00:00,310.0163,1.35,12.73,47.84626,-54.09684
2021-03-12 22:09:01+00:00,313.8446,1.32,12.73,47.84626,-54.09684
2021-03-12 22:19:01+00:00,314.8397,1.3,12.65,47.84626,-54.09684
2021-03-12 22:29:01+00:00,321.3146,1.32,12.65,47.84626,-54.09684
2021-03-12 22:39:01+00:00,325.8997,1.32,12.65,47.84626,-54.09684
2021-03-12 22:49:01+00:00,331.0663,1.31,12.65,47.84626,-54.09684
2021-03-12 22:59:01+00:00,330.3564,1.31,12.65,47.84626,-54.09684
2021-03-12 23:09:01+00:00,328.4113,1.31,12.65,47.84626,-54.09684
2021-03-12 23:19:01+00:00,332.5446,1.32,12.65,47.84626,-54.09684
2021-03-12 23:29:01+00:00,332.6113,1.32,12.65,47.84626,-54.09684
2021-03-12 23:39:01+00:00,337.5663,1.33,12.65,47.84626,-54.09684
2021-03-12 23:49:01+00:00,333.1263,1.34,12.65,47.84626,-54.09684
2021-03-12 23:59:01+00:00,331.358,1.33,12.65,47.84626,-54.09684
